Location: DARK SKY Beskydy - Park tmavé oblohy, www.darkskybeskydy.cz
(49.4926°N, 18.5016°E)
Time: 18:25:49
(UTC+02:00)

PCSat - Pass Details

Date: 10 August 2024
Orbit: 781 x 793 km, 67.1° (Epoch: 08 September)

Event Time Altitude Azimuth Distance (km) Brightness Sun altitude
Rises 01:03:09 0° 326° (NW) 3,301 13.6 -25.0°
Reaches altitude 10° 01:05:48 10° 335° (NNW) 2,369 12.8 -24.9°
Maximum altitude 01:10:45 35° 41° (NE) 1,274 11.0 -24.9°
Drops below altitude 10° 01:15:40 10° 106° (ESE) 2,358 11.9 -24.8°
Enters shadow 01:15:59 - 108° (ESE) 2,462 12.0 -24.8°
